IW1PPB-3 Weather Reports


Display with metric or nautical units.
time (UTC)temp
F
wind
direction
speed
MPH
gust
MPH
rain 1hr
in
rain 24hr
in
rain mn
in
humidity
%
barometer
mb
20260505211335 60 360 4.0 9.0 0.00 1.05 2.69 82 1011.9
20260505210338 60 360 5.0 8.0 0.00 1.05 2.69 82 1012.0
20260505205335 60 360 4.0 6.0 0.00 1.05 2.69 82 1012.1
20260505204334 60 360 4.0 8.0 0.00 1.05 2.69 83 1012.1
20260505203327 60 360 5.0 8.0 0.00 1.05 2.69 82 1012.2
20260505202329 60 360 4.0 5.0 0.00 1.05 2.69 82 1012.1
20260505201341 59 360 3.0 6.0 0.00 1.05 2.69 83 1012.2
20260505200322 59 360 4.0 6.0 0.00 1.05 2.69 83 1012.1
20260505195328 59 360 6.0 8.0 0.00 1.05 2.69 83 1012.2
20260505194338 59 360 2.0 6.0 0.00 1.05 2.69 83 1012.0
20260505193323 59 360 3.0 8.0 0.00 1.05 2.69 83 1011.9
20260505192335 59 360 5.0 8.0 0.00 1.05 2.69 83 1011.8
20260505191328 60 360 2.0 4.0 0.00 1.05 2.69 83 1011.8
20260505190324 60 360 2.0 5.0 0.00 1.05 2.69 83 1011.7
20260505185340 60 360 3.0 4.0 0.00 1.05 2.69 83 1011.6
20260505184349 61 360 2.0 4.0 0.00 1.05 2.69 82 1011.6
20260505183331 61 360 3.0 5.0 0.00 1.05 2.69 82 1011.6
20260505182343 62 360 2.0 5.0 0.00 1.05 2.69 80 1011.5
20260505181325 63 360 4.0 5.0 0.00 1.05 2.69 78 1011.6
20260505180330 63 360 1.0 2.0 0.00 1.05 2.69 73 1011.7
20260505175336 63 360 0.0 3.0 0.00 1.05 2.69 74 1011.7
20260505174323 63 360 3.0 5.0 0.00 1.05 2.69 73 1011.8
20260505173328 64 360 3.0 6.0 0.00 1.05 2.69 73 1011.8
20260505172338 64 360 4.0 5.0 0.04 1.05 2.69 72 1011.8
20260505171325 64 360 3.0 4.0 0.04 1.05 2.69 70 1011.7
20260505170330 64 360 2.0 5.0 0.04 1.05 2.69 70 1011.8
20260505165339 64 360 2.0 3.0 0.04 1.05 2.69 69 1011.7
20260505164325 64 360 3.0 4.0 0.04 1.05 2.69 70 1011.8
20260505163332 64 360 3.0 4.0 0.04 1.05 2.69 71 1011.9
20260505162335 64 360 1.0 4.0 0.00 1.05 2.68 72 1011.8
20260505161324 64 360 3.0 5.0 0.00 1.05 2.68 71 1011.9
20260505160327 64 360 2.0 4.0 0.00 1.05 2.68 69 1011.9
20260505153325 64 360 1.0 3.0 0.00 1.05 2.68 72 1011.9
20260505152338 64 360 2.0 3.0 0.00 1.05 2.68 73 1011.9
20260505151334 64 360 1.0 3.0 0.00 1.05 2.68 74 1012.0
20260505150325 63 360 2.0 3.0 0.00 1.05 2.68 74 1012.0
20260505140342 63 360 4.0 6.0 0.00 1.05 2.68 79 1012.1
20260505124343 63 360 3.0 6.0 0.00 1.05 2.68 75 1012.3
20260505123324 62 360 3.0 6.0 0.00 1.05 2.68 76 1012.3
20260505122334 62 360 4.0 8.0 0.00 1.05 2.68 76 1012.3
20260505121333 62 360 4.0 6.0 0.00 1.05 2.68 75 1012.3
20260505120328 62 360 3.0 4.0 0.00 1.05 2.68 74 1012.3
20260505115324 62 360 2.0 5.0 0.00 1.05 2.68 75 1012.4
20260505114338 62 360 3.0 4.0 0.00 1.05 2.68 75 1012.4
20260505113345 62 360 3.0 4.0 0.00 1.05 2.68 76 1012.4
20260505112333 62 360 2.0 3.0 0.00 1.05 2.68 77 1012.3
20260505111346 62 360 3.0 4.0 0.00 1.05 2.68 77 1012.3
20260505110331 62 360 1.0 4.0 0.00 1.05 2.68 78 1012.5
20260505101334 63 360 2.0 4.0 0.00 1.05 2.68 76 1012.4
20260505100333 63 360 2.0 3.0 0.00 1.05 2.68 76 1012.3
20260505095343 62 360 2.0 3.0 0.00 1.05 2.68 76 1012.3
20260505094343 62 360 1.0 3.0 0.00 1.05 2.68 75 1012.4
20260505093334 62 360 1.0 3.0 0.00 1.05 2.68 74 1012.2
20260505092330 62 360 1.0 3.0 0.00 1.05 2.68 75 1012.3
20260505091340 62 360 2.0 4.0 0.00 1.05 2.68 76 1012.2
20260505090351 62 360 2.0 4.0 0.04 1.05 2.68 77 1012.1
20260505085336 61 360 2.0 6.0 0.08 1.05 2.68 79 1012.2
20260505084336 61 360 1.0 5.0 0.08 1.05 2.68 81 1012.1
20260505083329 61 360 4.0 9.0 0.08 1.05 2.68 82 1012.1
20260505082330 60 360 5.0 10.0 0.08 1.05 2.68 82 1012.1
20260505081342 60 360 6.0 10.0 0.08 1.05 2.68 80 1011.9
20260505080343 60 360 10.0 15.0 0.04 1.05 2.67 82 1012.2
20260505075328 61 360 4.0 5.0 0.00 1.04 2.66 87 1011.8
20260505074333 60 360 2.0 3.0 0.00 1.04 2.66 89 1011.5
20260505073330 60 360 0.0 0.0 0.00 1.04 2.66 91 1011.4
20260505072336 60 360 0.0 2.0 0.00 1.04 2.66 91 1011.3
20260505071324 59 360 0.0 2.0 0.00 1.04 2.66 92 1011.4
20260505070338 59 360 1.0 3.0 0.00 1.04 2.66 92 1011.3
20260505065327 59 360 1.0 4.0 0.00 1.04 2.66 92 1011.3
20260505064335 59 360 0.0 4.0 0.00 1.04 2.66 92 1011.2
20260505063338 59 360 1.0 4.0 0.00 1.04 2.66 92 1011.3
20260505062325 59 360 0.0 2.0 0.00 1.04 2.66 93 1011.2
20260505061323 58 360 2.0 2.0 0.00 1.04 2.66 93 1011.0
20260505060338 57 360 1.0 3.0 0.00 1.04 2.66 93 1010.9
20260505055339 57 360 2.0 3.0 0.00 1.04 2.66 93 1010.8
20260505054330 57 360 0.0 2.0 0.00 1.04 2.66 93 1010.8
20260505053325 57 360 2.0 4.0 0.00 1.04 2.66 93 1010.5
20260505052332 57 360 0.0 2.0 0.00 1.04 2.66 93 1010.3
20260505051324 57 360 2.0 4.0 0.00 1.04 2.66 92 1010.4
20260505050330 57 360 2.0 4.0 0.04 1.04 2.66 93 1010.3
20260505041342 56 360 3.0 5.0 1.02 1.04 2.66 92 1010.5
20260505040329 57 360 2.0 5.0 1.22 1.04 2.65 93 1010.5
20260505035334 57 360 5.0 6.0 1.46 1.03 2.63 92 1010.9
20260505034329 57 360 3.0 4.0 1.46 1.01 2.57 92 1011.8
20260505033348 56 360 3.0 9.0 1.54 9.88 2.51 92 1011.8
20260505032336 56 360 3.0 5.0 1.50 9.69 2.46 92 1011.9
20260505031348 57 360 1.0 6.0 1.42 9.45 2.40 92 1012.4
20260505030338 56 360 1.0 11.0 1.42 9.17 2.33 91 1012.3
20260505025324 56 360 8.0 12.0 1.42 8.86 2.25 91 1012.1
20260505024340 56 360 6.0 11.0 1.42 8.62 2.19 91 1012.0
20260505023340 56 360 5.0 14.0 1.34 8.35 2.12 91 1012.0
20260505022328 57 360 6.0 12.0 1.38 8.19 2.08 92 1012.1
20260505021333 57 360 7.0 10.0 1.61 7.99 2.03 92 1012.0
20260505020337 58 360 5.0 8.0 2.09 7.76 1.97 92 1012.3
20260505015335 58 360 4.0 10.0 2.09 7.44 1.89 92 1012.5
20260505014347 58 360 4.0 8.0 2.09 7.20 1.83 92 1012.6
20260505013347 58 360 7.0 15.0 2.05 7.01 1.78 92 1012.6
20260505012329 59 360 10.0 15.0 2.05 6.77 1.72 92 1012.7
20260505011331 61 360 10.0 23.0 1.93 6.30 1.60 91 1012.8
20260505010336 62 360 13.0 20.0 1.54 5.63 1.43 92 1012.8
20260505005335 62 360 12.0 19.0 1.77 5.31 1.35 92 1013.1
20260505004331 62 360 11.0 21.0 1.77 5.12 1.30 92 1013.4
20260505003343 62 360 8.0 19.0 1.73 4.96 1.26 92 1013.5
20260505002342 62 360 11.0 18.0 1.73 4.72 1.20 92 1013.5
20260505001326 62 360 8.0 18.0 1.81 4.37 1.11 92 1013.6
20260505000333 62 360 7.0 15.0 1.73 4.06 1.03 92 1013.8
20260504235343 63 360 6.0 14.0 1.65 3.50 0.89 91 1013.9
20260504234343 63 360 8.0 17.0 1.69 3.35 0.85 91 1014.1
20260504233331 63 360 7.0 14.0 2.17 3.23 0.82 91 1014.2
20260504232347 62 360 11.0 18.0 2.48 2.95 0.75 91 1014.3
20260504231323 61 360 5.0 15.0 2.52 2.56 0.65 90 1014.4
20260504230330 61 360 6.0 14.0 2.32 2.32 0.59 90 1014.5
20260504225344 60 360 9.0 13.0 1.85 1.85 0.47 89 1014.6
20260504224327 61 360 9.0 13.0 1.61 1.61 0.41 88 1014.7
20260504223344 61 360 5.0 13.0 1.06 1.06 0.27 85 1015.1
20260504222332 62 360 8.0 14.0 0.43 0.43 0.11 83 1015.2
20260504221340 62 360 9.0 14.0 0.04 0.04 0.01 81 1015.0
20260504220325 63 360 8.0 15.0 0.00 0.00 0.00 80 1015.2
20260504215327 63 360 9.0 12.0 0.00 0.00 0.00 80 1015.3
20260504214342 63 360 9.0 15.0 0.00 0.00 0.00 80 1015.5
20260504213323 63 360 5.0 10.0 0.00 0.00 0.00 79 1015.7
20260504212338 63 360 4.0 8.0 0.00 0.00 0.00 79 1016.0